Tracking 17138 objects as of 8-July-2015
HD Live streaming from Space Station

TITAN 3 R/B(2)

Track TITAN 3 R/B(2) now!
TITAN 3 R/B(2) is classified as:


NORAD ID: 20669
Int'l Code: 1990-056C
Perigee: 289.8 km
Apogee: 33,339.6 km
Inclination: 24.6 °
Period: 585.6 minutes
Semi major axis: 23185 km
RCS: 6.947 m2 (large)
Launch date: June 23, 1990
Source: United States (US)

Note: This is a ROCKET BODY
Your satellite tracking list
Your tracking list is empty





NASA's NSSDC Master Catalog

Two Line Element Set (TLE):
1 20669U 90056C   15186.63347402  .00002041  00000-0  99738-3 0  9999
2 20669 024.5721 024.1896 7127177 231.6163 016.8893 02.45907519209783

Source of the keplerian elements: AFSPC

N2YO: 265